Flag for U.S.A. Weather past 2 weeks in Grand Prairie, Texas, U.S.A.

Now
64 °F

Clear.


Feels Like: 64 °F
Forecast: 61 / 85 °F
Wind: No wind

Location: Grand Prairie Municipal Airport

Current Time: Oct 24, 2014 at 2:26:15 AM

Latest Report: Oct 24, 2014 at 1:55 AM


Visibility: 10 mi

Pressure: 30.13 "Hg

Humidity: 78%

Dew point: 57 °F

Location of Grand PrairieLocation

Historic Weather in Grand Prairie — Graph

°F

Grand Prairie temperature yesterday

Maximum temperature yesterday: 79 °F (at 3:50 PM)
Minimum temperature yesterday: 65 °F (at 6:35 AM)
Average temperature yesterday: 69 °F

Past Weeks' High & Low Weather Summary

 TemperatureHumidityPressure
High91 °F (Oct 9, 2:50 PM)100% (Oct 11, 12:15 AM)30.19 "Hg (Oct 11, 12:15 AM)
Low48 °F (Oct 13, 3:50 PM)22% (Oct 16, 1:50 PM)29.61 "Hg (Oct 13, 12:55 AM)
Average68 °F70%30.00 "Hg
* Reported Oct 9 1:15 AM — Oct 24 1:15 AM, Grand Prairie, Weather by CustomWeather, © 2014

Note: Actual official high and low records may vary slightly from our data, if they occured in-between our weather recording intervals... More about our weather records

Advertising

Grand Prairie weather history for previous 24 hours

 ConditionsComfort  
Time TempWeatherWind HumidityBarometerVisibility
1:15 AM
Oct 24
65 °FClear.No wind76%30.13 "Hg10 mi
12:55 AM66 °FClear.No wind74%30.13 "Hg10 mi
12:35 AM66 °FClear.3 mph73%30.13 "Hg10 mi
12:15 AM67 °FClear.5 mph72%30.13 "Hg10 mi
11:55 PM
Oct 23
67 °FClear.3 mph72%30.12 "Hg10 mi
11:35 PM67 °FClear.5 mph71%30.13 "Hg10 mi
11:15 PM67 °FClear.5 mph70%30.13 "Hg10 mi
10:55 PM67 °FClear.5 mph71%30.13 "Hg10 mi
10:15 PM68 °FClear.5 mph67%30.12 "Hg10 mi
9:55 PM69 °FClear.6 mph67%30.11 "Hg10 mi
9:35 PM69 °FClear.5 mph66%30.11 "Hg10 mi
9:15 PM69 °FClear.5 mph67%30.11 "Hg10 mi
8:55 PM70 °FClear.5 mph67%30.11 "Hg10 mi
8:35 PM71 °FClear.5 mph65%30.10 "Hg10 mi
8:15 PM71 °FClear.6 mph63%30.10 "Hg10 mi
6:50 PM75 °FSunny.7 mph54%30.08 "Hg10 mi
5:50 PM77 °FSunny.7 mph51%30.08 "Hg10 mi
4:50 PM77 °FSunny.7 mph51%30.08 "Hg10 mi
3:50 PM79 °FSunny.8 mph61%30.10 "Hg10 mi
2:50 PM75 °FSunny.8 mph57%30.10 "Hg10 mi
1:50 PM73 °FSunny.N/A57%30.13 "Hg10 mi
12:50 PM72 °FSunny.9 mph57%30.16 "Hg10 mi
6:35 AM65 °FPassing clouds.3 mph70%30.14 "Hg10 mi
6:15 AM65 °FPartly cloudy.5 mph69%30.14 "Hg10 mi
5:55 AM65 °FPassing clouds.5 mph69%30.13 "Hg10 mi
5:35 AM66 °FPassing clouds.3 mph69%30.13 "Hg10 mi
5:15 AM66 °FPassing clouds.3 mph68%30.13 "Hg10 mi
4:55 AM66 °FPassing clouds.3 mph67%30.12 "Hg10 mi
4:35 AM66 °FPassing clouds.3 mph67%30.12 "Hg10 mi
4:15 AM67 °FPassing clouds.3 mph65%30.13 "Hg10 mi
3:55 AM67 °FPassing clouds.7 mph65%30.13 "Hg10 mi
3:35 AM67 °FPassing clouds.6 mph64%30.13 "Hg10 mi
3:15 AM67 °FPassing clouds.8 mph64%30.13 "Hg10 mi
2:55 AM68 °FClear.6 mph65%30.13 "Hg10 mi
2:35 AM68 °FClear.6 mph65%30.12 "Hg10 mi
2:15 AM68 °FClear.6 mph65%30.12 "Hg10 mi
Weather by CustomWeather, © 2014

See weather overviewHow to use our weather pages